PRAETORIAN SDA_614

Last updated on Sun Jun 21 2026 00:03:46 GMT+0000 (Coordinated Universal Time)

1 65577U 25203N 26171.28680602 .00000082 00000+0 61872-4 0 9998 2 65577 81.3014 7.7208 0007187 175.0044 185.1186 13.84777598 39143
UTC large
Height (km)
Speed (km/s)
/
Latitude / Longitude
Inclination (degrees)
Orbital Period (minutes)
Azimuth
Elevation
Range (km)
Doppler Factor

Next 0 passes for location: London (51.5072 / 0.1276)

No passes found over London.
PRAETORIAN SDA_614